Station MYPF1 - 8720218 - Mayport (Bar Pilots Dock), FL Image indicating link to RSS feed of recent meteorological observations for station MYPF1


Conditions at MYPF1 as of
(5:00 pm EDT)
2100 GMT on 05/27/2024:
     

Click on the graph icon in the table below to see a time series plot of the last five days of that observation.

5-day plot - Wind Direction Wind Direction (WDIR):SSE ( 150 deg true )
5-day plot - Wind Speed Wind Speed (WSPD):5.1 m/s
5-day plot - Wind Gust Wind Gust (GST):7.7 m/s
5-day plot - Atmospheric Pressure Atmospheric Pressure (PRES):1013.2 mb
5-day plot - Pressure Tendency Pressure Tendency (PTDY): -2.3 mb ( Falling )
5-day plot - Air Temperature Air Temperature (ATMP): 30.2 °C
5-day plot - Water Temperature Water Temperature (WTMP): 28.2 °C
5-day plot - Wind Speed at 10 Meters Wind Speed at 10 meters (WSPD10M): 6 m/s
5-day plot - Wind Speed at 20 Meters Wind Speed at 20 meters (WSPD20M): 6 m/s
5-day plot -  Wind Speed, Wind Gust and Atmospheric Pressure Combined plot of Wind Speed, Gust, and Air Pressure
NOS Water Level Observation Network Water Level
Previous observations
TIME
(EDT)
5-day plot - Wind Direction
WDIR
 
5-day plot - Wind Speed
WSPD
m/s
5-day plot - Wind Gust
GST
m/s
5-day plot - Wave Height
WVHT
m
5-day plot - Dominant Wave Period
DPD
sec
5-day plot - Average Wave Period
APD
sec
5-day plot - Mean Wave Direction
MWD
 
5-day plot - Atmospheric Pressure
PRES
mb
5-day plot - Pressure Tendency
PTDY
mb
5-day plot - Air Temperature
ATMP
°C
5-day plot - Water Temperature
WTMP
°C
5-day plot - Dew Point
DEWP
°C
5-day plot - Salinity
SAL
psu
5-day plot - Visibility
VIS
km
5-day plot - Tide (above MLLW)
TIDE
m
2024-05-27 04:54 pm SE 3.1 7.2----1013.3- 30.5 28.2----
2024-05-27 04:48 pmSSE 3.6 6.7----1013.4- 30.3 28.2----
2024-05-27 04:42 pm SE 4.6 7.7----1013.4- 30.0 28.1----
2024-05-27 04:36 pm SE 4.1 6.7----1013.6- 29.7 28.1----
2024-05-27 04:30 pm-------1013.5- 29.5 28.1----
2024-05-27 04:24 pm-------1013.7- 29.4 28.0----
2024-05-27 04:18 pm SE 4.6 7.7----1013.6- 29.3 28.0----
2024-05-27 04:12 pm SE 5.7 8.2----1013.7- 29.0 28.0----
2024-05-27 04:06 pmESE 5.7 8.2----1013.8- 29.2 27.9----
2024-05-27 04:00 pm SE 4.6 7.7----1014.0 -2.2 29.4 27.9----
2024-05-27 03:54 pmESE 5.1 6.7----1014.1- 29.5 27.9----
2024-05-27 03:48 pmESE 5.1 7.2------ 29.2 27.7----
2024-05-27 03:42 pm SE 3.6 7.2------ 29.7 27.6----
2024-05-27 03:36 pm SE 5.7 7.2------ 29.1 27.5----
2024-05-27 03:30 pm SE 5.7 7.7----1014.4- 29.1 27.5----
2024-05-27 03:24 pmESE 4.6 6.7----1014.5- 29.5 27.4----
2024-05-27 03:18 pm SE 4.6 7.7----1014.5- 29.3 27.3----
2024-05-27 03:12 pmESE 5.1 7.7----1014.6- 29.1 27.2----
2024-05-27 03:06 pmESE 5.7 7.2----1014.7- 29.3 27.3----
2024-05-27 03:00 pmESE 4.1 7.2----1014.8 -2.2 29.5 27.3----
2024-05-27 02:54 pmESE 3.6 6.2----1014.9- 29.7 27.3----
2024-05-27 02:48 pmESE 4.1 6.2----1014.9- 29.8 27.4----
2024-05-27 02:42 pm SE 2.1 4.6----1015.1- 29.7 27.4----
2024-05-27 02:36 pm SE 2.6 4.6----1015.2- 30.0 27.5----
2024-05-27 02:30 pmWSW 2.6 3.6----1015.3- 31.3 27.3----
2024-05-27 02:24 pmWSW 3.6 5.7----1015.3- 31.4 27.1----
2024-05-27 02:18 pmWSW 4.6 6.2----1015.3- 31.4 26.9----
2024-05-27 02:12 pm W 6.2 7.2----1015.4- 31.5 26.8----
2024-05-27 02:06 pm W 4.6 6.7----1015.4- 31.4 26.6----
2024-05-27 02:00 pm W 4.1 5.1----1015.5 -1.8 31.4 26.5----
2024-05-27 01:54 pm W 4.1 5.1----1015.6- 31.0 26.7----
2024-05-27 01:48 pm W 3.6 6.2----1015.6-- 26.7----
2024-05-27 01:42 pm W 2.6 5.1----1015.7-- 26.7----
2024-05-27 01:36 pm W 2.1 3.6----1015.9-- 26.4----
2024-05-27 01:30 pmWNW 3.1 4.1----1016.0- 30.5 26.4----
2024-05-27 01:24 pm W 3.1 4.1----1016.0- 30.4 26.5----
2024-05-27 01:18 pm NW 2.6 4.1----1016.1- 30.4 26.6----
2024-05-27 01:12 pm W 3.1 4.6----1016.2- 30.4 26.6----
2024-05-27 01:06 pm W 3.1 4.6----1016.2- 30.4 26.6----
2024-05-27 01:00 pm W 2.6 4.1----1016.2 -0.3 30.1 26.4----
2024-05-27 12:54 pm W 3.1 4.1----1016.2- 30.2 26.4----
2024-05-27 12:48 pm NW 3.6 5.1----1016.4- 30.0 26.5----
2024-05-27 12:42 pmWNW 4.1 5.1----1016.4- 30.0 26.5----
2024-05-27 12:36 pmWNW 2.6 4.6----1016.5- 30.0 26.5----
2024-05-27 12:30 pmWNW 4.1 5.1----1016.7- 29.8 26.5----
2024-05-27 12:24 pmWNW 3.6 6.2----1016.7- 29.7 26.6----
2024-05-27 12:18 pmWNW 4.6 6.7----1016.8- 29.8 26.6----
2024-05-27 12:12 pm W 4.1 5.7----1016.8- 29.6 26.6----
2024-05-27 12:06 pm W 4.1 5.1----1016.9- 29.5 26.6----
2024-05-27 12:00 pm W 4.1 5.7----1017.0 +1.6 29.3 26.7----
2024-05-27 11:54 am W 4.1 5.7----1017.0- 29.4 26.9----
2024-05-27 11:48 am W 4.1 5.1----1017.0- 29.3 26.8----
2024-05-27 11:42 amWNW 5.1 7.2----1017.2- 29.3 26.8----
2024-05-27 11:36 amWNW 4.6 6.7----1017.3- 29.3 26.8----
2024-05-27 11:30 am W 5.1 6.7----1017.3- 29.3 27.0----
2024-05-27 11:24 am W 4.6 6.7----1017.4- 29.1 27.0----
2024-05-27 11:18 am W 4.6 6.7----1017.4- 29.0 27.4----
2024-05-27 11:12 amWNW 4.1 7.2----1017.4- 28.9 27.6----
2024-05-27 11:06 amWNW 4.6 6.7----1017.3- 28.8 27.7----
2024-05-27 11:00 amWNW 4.6 6.7----1017.3 +2.7 28.7 27.8----
2024-05-27 10:54 amWNW 4.6 6.2----1017.3- 28.8 27.8----
2024-05-27 10:48 am W 3.6 6.2----1017.3-- 27.8----
2024-05-27 10:42 am W 4.6 6.2----1017.2-- 27.9----
2024-05-27 10:36 am W 4.1 5.1----1017.2-- 27.9----
2024-05-27 10:30 am W 4.1 5.7----1017.1- 27.9 27.9----
2024-05-27 10:24 am W 5.7 7.2----1017.2- 27.8 27.9----
2024-05-27 10:18 am W 5.1 6.7----1017.0- 27.8 27.9----
2024-05-27 10:12 amWNW 6.2 7.2----1016.9- 27.6 27.9----
2024-05-27 10:06 amWNW 5.7 6.7----1016.8- 27.5 27.9----
2024-05-27 10:00 am W 5.7 6.7----1016.5 +2.5 27.2 27.9----
2024-05-27 09:54 am W 6.2 7.2----1016.3- 27.1 27.9----
2024-05-27 09:48 am W 5.1 6.2----1016.2- 27.0 27.9----
2024-05-27 09:42 am W 4.6 5.7----1016.1- 26.9 27.9----
2024-05-27 09:36 am W 4.6 6.7----1016.1- 26.9 27.9----
2024-05-27 09:30 am W 5.1 6.2----1016.0- 26.8 27.9----
2024-05-27 09:24 am W 5.7 6.7----1016.0- 26.8 27.9----
2024-05-27 09:18 am W 5.1 5.7----1015.8- 26.6 27.9----
2024-05-27 09:12 am W 4.6 5.7----1015.7- 26.6 27.9----
2024-05-27 09:06 am W 5.1 6.2----1015.5- 26.4 27.8----
2024-05-27 09:00 amWSW 5.1 6.2----1015.4 +1.8 26.3 27.8----
2024-05-27 08:54 am W 5.7 6.2----1015.4- 26.2 27.8----
2024-05-27 08:48 am W 5.1 6.2----1015.2- 26.1 27.9----
2024-05-27 08:42 amWSW 5.7 6.2----1015.0- 25.9 27.8----
2024-05-27 08:36 am W 4.6 6.2----1014.9- 25.9 27.8----
2024-05-27 08:30 am W 5.1 6.2----1014.8- 25.8 27.8----
2024-05-27 08:24 am W 5.1 7.2----1014.7- 25.8 27.8----
2024-05-27 08:18 am W 5.7 6.7----1014.6- 25.6 27.8----
2024-05-27 08:12 am W 4.6 5.7----1014.6- 25.5 27.7----
2024-05-27 08:06 am W 4.6 6.2----1014.6- 25.4 27.7----
2024-05-27 08:00 amWSW 4.1 5.1----1014.6 +1.2 25.2 27.7----
2024-05-27 07:54 amWSW 4.1 5.1----1014.6- 25.1 27.7----
2024-05-27 07:48 amWSW 3.6 4.6----1014.5- 24.9 27.6----
2024-05-27 07:42 am W 3.1 4.1----1014.6- 24.9 27.6----
2024-05-27 07:36 amWSW 3.6 4.1----1014.5- 24.7 27.6----
2024-05-27 07:30 amWSW 3.1 4.1----1014.4- 24.5 27.6----
2024-05-27 07:24 amWSW 3.6 4.1----1014.3- 24.4 27.7----
2024-05-27 07:18 amWSW 3.6 4.6----1014.2- 24.4 27.7----
2024-05-27 07:12 amWSW 4.1 4.6----1014.1- 24.4 27.6----
2024-05-27 07:06 amWSW 3.6 4.6----1014.1- 24.4 27.6----
2024-05-27 07:00 amWSW 4.1 4.6----1014.0 +0.6 24.3 27.6----
2024-05-27 06:54 amWSW 3.6 5.1----1014.0- 24.4 27.6----
2024-05-27 06:48 amWSW 4.6 5.7----1014.0- 24.3 27.6----
2024-05-27 06:42 amWSW 4.1 5.1----1013.9- 24.4 27.6----
2024-05-27 06:36 amWSW 3.6 4.6----1013.8- 24.5 27.6----
2024-05-27 06:30 amWSW 3.6 4.6----1013.7- 24.5 27.6----
2024-05-27 06:24 amWSW 3.6 4.6----1013.7- 24.6 27.6----
2024-05-27 06:18 amWSW 3.6 4.1----1013.6- 24.7 27.6----
2024-05-27 06:12 amWSW 3.1 4.1----1013.6- 24.8 27.6----
2024-05-27 06:06 amWSW 2.6 3.1----1013.7- 24.7 27.6----
2024-05-27 06:00 amWSW 2.6 2.6----1013.6 +0.0 24.6 27.6----
2024-05-27 05:54 amWSW 2.1 2.6----1013.6- 24.6 27.6----
2024-05-27 05:48 amWSW 2.6 3.1----1013.6- 24.7 27.6----
2024-05-27 05:42 amWSW 2.6 3.1----1013.5- 24.8 27.5----
2024-05-27 05:36 amWSW 2.6 3.1----1013.4- 24.9 27.5----
2024-05-27 05:30 amWSW 2.6 3.1----1013.4- 25.0 27.5----
2024-05-27 05:24 amWSW 2.6 3.1----1013.4- 25.2 27.4----
2024-05-27 05:18 am SW 2.6 3.6----1013.5- 25.2 27.4----
2024-05-27 05:12 amWSW 2.6 3.1----1013.5- 25.1 27.3----
2024-05-27 05:06 amWSW 2.6 2.6----1013.5- 25.2 27.3----
2024-05-27 05:00 amWSW 2.6 3.1----1013.4 -0.4 25.3 27.3----
2024-05-27 04:54 amWSW 2.6 2.6----1013.4- 25.4 27.3----
2024-05-27 04:48 amWSW 2.1 2.6----1013.5- 25.5 27.3----
2024-05-27 04:42 amWSW 2.1 3.1----1013.5- 25.6 27.3----
2024-05-27 04:36 am W 2.6 3.1----1013.5- 25.6 27.4----
2024-05-27 04:30 am W 2.6 3.6----1013.5- 25.8 27.4----
2024-05-27 04:24 am W 2.6 3.1----1013.6- 25.8 27.4----
2024-05-27 04:18 am W 2.6 4.1----1013.6- 25.9 27.4----
2024-05-27 04:12 am W 3.1 4.1----1013.6- 25.9 27.4----
2024-05-27 04:06 am W 3.1 4.1----1013.5- 26.0 27.4----
2024-05-27 04:00 amWSW 3.1 3.6----1013.4 -0.8 26.1 27.3----
2024-05-27 03:54 am W 2.6 3.6----1013.3- 26.1 27.3----
2024-05-27 03:48 am W 2.6 3.6----1013.4- 26.1 27.2----
2024-05-27 03:42 am W 2.6 3.1----1013.4- 26.2 27.1----
2024-05-27 03:36 am W 2.6 3.1----1013.5- 26.2 27.1----
2024-05-27 03:30 am W 2.6 3.1----1013.4- 26.3 27.1----
2024-05-27 03:24 am W 2.6 3.6----1013.4- 26.2 27.1----
2024-05-27 03:18 am W 2.6 3.1----1013.4- 26.1 27.1----
2024-05-27 03:12 am W 2.6 3.1----1013.4- 26.0 27.0----
2024-05-27 03:06 am W 2.6 3.1----1013.5- 25.9 26.9----
2024-05-27 03:00 am W 2.1 3.1----1013.5 -1.2 25.9 26.9----
2024-05-27 02:54 amWSW 2.6 3.1----1013.6- 25.8 26.9----
2024-05-27 02:48 amWSW 2.1 2.6----1013.4- 25.7 26.9----
2024-05-27 02:42 am SW 2.6 3.1----1013.5- 25.8 26.9----
2024-05-27 02:36 am SW 1.5 2.1----1013.5- 25.7 26.9----
2024-05-27 02:30 amSSW 1.5 2.1----1013.5- 25.6 26.9----
2024-05-27 02:24 amSSW 1.5 2.1----1013.6- 25.7 26.9----
2024-05-27 02:18 amSSW 1.0 2.1----1013.6- 25.7 26.9----
2024-05-27 02:12 amSSW 1.5 2.1----1013.6- 25.8 26.9----
2024-05-27 02:06 amSSW 1.0 2.6----1013.7- 25.8 26.9----
2024-05-27 02:00 amSSW 1.5 2.1----1013.8 -1.1 25.8 26.9----
2024-05-27 01:54 amSSW 1.0 2.1----1013.8- 25.8 26.9----
2024-05-27 01:48 amSSW 1.5 2.1----1013.8- 25.8 26.9----
2024-05-27 01:42 amSSW 2.1 2.1----1013.8- 25.9 26.9----
2024-05-27 01:36 amSSW 2.1 2.6----1013.8- 26.0 26.9----
2024-05-27 01:30 amSSW 1.5 2.6----1013.9- 26.0 26.9----
2024-05-27 01:24 amSSW 1.5 2.1----1013.9- 26.0 26.9----
2024-05-27 01:18 am S 1.0 2.1----1014.0- 26.1 26.9----
2024-05-27 01:12 amSSW 1.5 2.1----1014.1- 26.2 26.9----
2024-05-27 01:06 amSSW 1.5 2.1----1014.2- 26.2 27.0----
2024-05-27 01:00 amSSW 2.1 2.6----1014.2 +0.0 26.2 27.0----
2024-05-27 12:54 am S 2.1 2.6----1014.2- 26.2 27.0----
2024-05-27 12:48 am S 2.1 3.1----1014.2- 26.2 27.0----
2024-05-27 12:42 am S 2.6 3.6----1014.3- 26.3 27.0----
2024-05-27 12:36 am S 2.1 3.1----1014.3- 26.3 27.0----
2024-05-27 12:30 am S 2.6 3.1----1014.4- 26.2 27.0----
2024-05-27 12:24 am S 2.1 3.1----1014.5- 26.2 27.0----
2024-05-27 12:18 am S 2.1 3.1----1014.6- 26.2 27.0----
2024-05-27 12:12 am S 1.5 3.1----1014.6- 26.2 27.0----
2024-05-27 12:06 am S 1.5 2.6----1014.6- 26.2 27.1----
2024-05-27 12:00 am S 1.5 3.1----1014.7 +0.8 26.3 27.1----
2024-05-26 11:54 pm S 1.0 2.6----1014.7- 26.3 27.1----
2024-05-26 11:48 pm-------1014.9-- 27.1----
2024-05-26 11:42 pm-------1014.9-- 27.1----
2024-05-26 11:36 pm-------1015.0-- 27.1----
2024-05-26 11:30 pm S 1.5 2.1----1015.0- 26.4 27.1----
2024-05-26 11:24 pmSSW 1.5 2.6----1015.0- 26.5 27.1----
2024-05-26 11:18 pm S 1.5 2.6----1014.9- 26.5 27.1----
2024-05-26 11:12 pm S 2.1 2.6----1014.8- 26.6 27.1----
2024-05-26 11:06 pm S 2.1 4.1----1014.9- 26.6 27.1----
2024-05-26 11:00 pm S 1.5 2.6----1014.9 +1.3 26.7 27.1----
2024-05-26 10:54 pm S 1.0 2.6----1014.9- 26.7 27.1----
2024-05-26 10:48 pmSSW 1.5 2.6----1014.9- 26.8 27.2----
2024-05-26 10:42 pm S 1.5 3.1----1014.9- 26.8 27.2----
2024-05-26 10:36 pm S 1.5 2.6----1014.8- 26.8 27.2----
2024-05-26 10:30 pm---------- 27.2----
2024-05-26 10:24 pm---------- 27.2----
2024-05-26 10:18 pm S 2.1 3.6----1014.6-------
2024-05-26 10:12 pm S 2.6 3.6----1014.6-------
2024-05-26 10:06 pmSSE 2.6 4.6----1014.4-------
2024-05-26 10:00 pmSSE 2.6 4.1----1014.3 +0.9- 27.1----
2024-05-26 09:54 pmSSE 2.1 3.6----1014.3-- 27.0----
2024-05-26 09:48 pmSSE 2.6 4.6----1014.3- 26.8 27.0----
2024-05-26 09:42 pmSSE 2.6 4.6----1014.3- 26.8 27.1----
2024-05-26 09:36 pmSSE 2.1 4.1----1014.1- 26.7 27.2----
2024-05-26 09:30 pmSSE 2.6 4.1----1014.0- 26.8 27.2----
2024-05-26 09:24 pmSSE 2.1 4.1----1014.0- 26.9 27.2----
2024-05-26 09:18 pmSSE 1.5 3.6----1014.2-- 27.3----
2024-05-26 09:12 pmSSE 2.6 4.1----1014.1-- 27.3----
2024-05-26 09:06 pm SE 1.5 4.6----1014.1-- 27.4----
2024-05-26 09:00 pmSSE 2.6 4.1----1013.9 +0.7- 27.6----
2024-05-26 08:54 pmSSE 2.1 3.6----1013.9-- 27.9----
2024-05-26 08:48 pmSSE 2.6 3.6----1013.9-- 28.0----
2024-05-26 08:42 pmSSE 2.6 4.1----1013.8-- 28.1----
2024-05-26 08:36 pm SE 2.1 3.6----1013.9-- 28.1----
2024-05-26 08:30 pmSSE 1.5 3.6----1013.9- 27.1 28.2----
2024-05-26 08:24 pm SE 2.6 4.6----1013.9- 27.1 28.2----
2024-05-26 08:18 pmSSE 2.1 4.1----1013.9-- 28.2----
2024-05-26 08:12 pmSSE 1.5 4.1----1013.9-- 28.2----
2024-05-26 08:06 pm SE 3.1 5.1----1013.7-- 28.2----
2024-05-26 08:00 pm SE 3.6 5.1----1013.6 +0.0- 28.2----
2024-05-26 07:54 pm SE 2.6 4.6----1013.6-- 28.2----
2024-05-26 07:48 pm-------1013.6-- 28.3----
2024-05-26 07:42 pm-------1013.5-- 28.3----
2024-05-26 07:36 pm-------1013.5-- 28.3----
2024-05-26 07:30 pm SE 3.1 5.7----1013.4-- 28.3----
2024-05-26 07:24 pm SE 3.6 6.2----1013.3-- 28.3----
2024-05-26 07:18 pm SE 3.6 5.1----1013.3- 28.1 28.3----
2024-05-26 07:12 pm SE 3.1 6.2----1013.4- 28.2 28.3----
2024-05-26 07:06 pm SE 4.1 5.1----1013.4- 28.0 28.2----
2024-05-26 07:00 pm SE 3.6 5.1----1013.4 +0.0 28.3 28.2----
2024-05-26 06:54 pm SE 3.1 4.6----1013.3- 28.4 28.2----
2024-05-26 06:48 pm SE 3.6 5.1----1013.3- 28.5 28.2----
2024-05-26 06:42 pmESE 4.6 5.7----1013.2- 28.5 28.1----
2024-05-26 06:36 pmESE 3.1 5.1----1013.1- 28.6 28.0----
2024-05-26 06:30 pmESE 4.1 6.2----1013.1-- 28.1----
2024-05-26 06:24 pmESE 4.1 6.2----1013.1-- 28.0----
2024-05-26 06:18 pm SE 4.1 5.7----1013.0- 28.6 28.1----
2024-05-26 06:12 pmESE 4.1 5.1----1013.2- 28.7 28.2----
2024-05-26 06:06 pm SE 4.6 5.7----1013.2- 28.8 28.1----
2024-05-26 06:00 pm SE 4.1 5.7----1013.2 -0.6 28.7 28.1----
2024-05-26 05:54 pm SE 3.1 5.7----1013.2- 29.0 28.2----
2024-05-26 05:48 pm SE 5.1 6.7----1013.2-- 28.1----
2024-05-26 05:42 pmESE 4.1 5.7----1013.1-- 28.2----
2024-05-26 05:36 pmESE 4.1 6.2----1013.1-- 28.2----
2024-05-26 05:30 pmESE 3.6 6.7----1013.1- 28.9 28.2----
2024-05-26 05:24 pmESE 3.1 6.2----1013.1- 29.4 28.1----
2024-05-26 05:18 pm SE 4.6 6.2----1013.1- 28.9 28.1----
2024-05-26 05:12 pmESE 3.6 5.7----1013.2- 29.0 27.9----
2024-05-26 05:06 pm SE 5.1 6.7----1013.3- 28.6 27.9----
2024-05-26 05:00 pm-------1013.4- 28.6 28.0----
2024-05-26 04:54 pm-------1013.4- 28.6 28.1----